Torna al catalogo

STARLINK-31087

AttivoComunicazioniVLEO
NORAD 58597·PAYLOAD·🇺🇸 United States

Lanciato Dec 19, 2023 da Cape Canaveral Space Force Station

Loading…

Prossimi Passaggi (prossime 24 ore)

TLE

AggiornatoSource: CelesTrak SupGP

Epoca: Sep 15, 2026, 02:52 UTC

1 58597C 23200J   26258.11993056 -.00024017  00000+0 -87015-3 0  2585
2 58597  43.0029 178.7400 0001329 276.3675 150.0958 15.27580390    11

Traccia STARLINK-31087 in tempo reale con AllMySat

Download on the App Store